TimeEDT,TemperatureF,Dew PointF,Humidity,Sea Level PressureIn,VisibilityMPH,Wind Direction,Wind SpeedMPH,Gust SpeedMPH,PrecipitationIn,Events,Conditions,WindDirDegrees,DateUTC
12:53 AM,55.0,48.9,80,30.11,10.0,NE,5.8,-,N/A,,Overcast,40,2012-10-08 04:53:00
1:29 AM,53.6,50.0,88,30.11,10.0,NE,6.9,-,N/A,,Overcast,50,2012-10-08 05:29:00
1:53 AM,54.0,48.9,83,30.10,10.0,ENE,6.9,-,N/A,,Overcast,60,2012-10-08 05:53:00
2:53 AM,54.0,48.0,80,30.10,10.0,NE,6.9,-,N/A,,Overcast,50,2012-10-08 06:53:00
3:53 AM,54.0,46.9,77,30.11,10.0,NNE,6.9,-,N/A,,Overcast,20,2012-10-08 07:53:00
4:53 AM,53.1,44.1,71,30.12,10.0,NE,10.4,-,N/A,,Overcast,40,2012-10-08 08:53:00
5:53 AM,52.0,43.0,71,30.12,10.0,NNE,10.4,-,N/A,,Overcast,20,2012-10-08 09:53:00
6:53 AM,51.1,41.0,68,30.13,10.0,NE,9.2,-,N/A,,Overcast,40,2012-10-08 10:53:00
7:53 AM,51.1,41.0,68,30.14,10.0,NE,10.4,-,N/A,,Overcast,50,2012-10-08 11:53:00
8:27 AM,51.8,41.0,67,30.15,10.0,NNE,11.5,-,N/A,,Overcast,20,2012-10-08 12:27:00
8:53 AM,51.1,39.9,66,30.14,10.0,NNE,10.4,-,N/A,,Overcast,30,2012-10-08 12:53:00
9:13 AM,51.8,39.2,62,30.15,10.0,NE,12.7,-,N/A,,Overcast,50,2012-10-08 13:13:00
9:53 AM,51.1,41.0,68,30.17,10.0,NNE,12.7,-,N/A,,Overcast,30,2012-10-08 13:53:00
10:53 AM,52.0,42.1,69,30.18,10.0,NE,9.2,-,N/A,,Overcast,40,2012-10-08 14:53:00
11:53 AM,52.0,42.1,69,30.17,10.0,NE,15.0,-,N/A,,Overcast,40,2012-10-08 15:53:00
12:53 PM,52.0,43.0,71,30.16,10.0,NE,12.7,19.6,N/A,,Overcast,40,2012-10-08 16:53:00
1:53 PM,52.0,44.1,74,30.15,10.0,NNE,11.5,-,N/A,,Overcast,20,2012-10-08 17:53:00
2:53 PM,52.0,45.0,77,30.12,10.0,NNE,11.5,-,N/A,,Overcast,30,2012-10-08 18:53:00
3:08 PM,51.8,44.6,76,30.13,10.0,North,10.4,-,N/A,,Overcast,10,2012-10-08 19:08:00
3:51 PM,50.0,46.4,87,30.13,10.0,NNE,9.2,-,N/A,,Overcast,20,2012-10-08 19:51:00
3:53 PM,50.0,46.0,86,30.12,10.0,NNE,10.4,-,N/A,,Overcast,20,2012-10-08 19:53:00
4:53 PM,50.0,46.9,89,30.11,10.0,NNE,8.1,-,N/A,,Overcast,20,2012-10-08 20:53:00
5:53 PM,50.0,46.0,86,30.11,10.0,NE,8.1,-,N/A,,Overcast,40,2012-10-08 21:53:00
6:53 PM,50.0,46.0,86,30.13,10.0,NNE,6.9,-,N/A,,Mostly Cloudy,20,2012-10-08 22:53:00
7:53 PM,50.0,46.4,87,30.13,10.0,NE,8.1,-,N/A,,Overcast,40,2012-10-08 23:53:00
8:53 PM,50.0,45.0,83,30.14,10.0,NE,6.9,-,N/A,,Overcast,50,2012-10-09 00:53:00
9:53 PM,48.9,45.0,86,30.15,10.0,NE,9.2,-,N/A,,Overcast,50,2012-10-09 01:53:00
10:53 PM,48.9,45.0,86,30.16,10.0,NNE,8.1,-,N/A,,Overcast,30,2012-10-09 02:53:00
11:42 PM,48.2,44.6,87,30.16,10.0,NNE,6.9,-,N/A,,Overcast,30,2012-10-09 03:42:00
11:53 PM,48.9,45.0,86,30.16,10.0,NE,5.8,-,N/A,,Overcast,40,2012-10-09 03:53:00